Location: *
(38.9555°S, 57.3572°E)
Time: 00:49:23
(UTC+00:00)

CZ-2C R/B - Pass Details

Date: 15 July 2020
Orbit: 784 x 871 km, 98.3° (Epoch: 06 August)

Event Time Altitude Azimuth Distance (km) Brightness Sun altitude
Rises 14:41:22 0° 33° (NNE) 3,269 5.6 -17.9°
Reaches altitude 10° 14:43:45 10° 39° (NE) 2,351 4.8 -18.3°
Maximum altitude 14:48:38 44° 109° (ESE) 1,108 2.8 -19.3°
Drops below altitude 10° 14:53:39 10° 179° (S) 2,412 4.9 -20.2°
Sets 14:56:07 0° 185° (S) 3,363 5.8 -20.7°
